Location: Unspecified
(0.0000°N, 0.0000°E)
Time: 02:43:43
(UTC+00:00)

Altair - Pass Details

Date: 26 October 2021
Orbit: 1502 x 1682 km, 47.2° (Epoch: 27 November)

Event Time Altitude Azimuth Distance (km) Brightness Sun altitude
Rises 21:05:45 0° 196° (SSW) 4,700 10.4 -48.8°
Reaches altitude 10° 21:09:43 10° 182° (S) 3,692 9.6 -49.7°
Enters shadow 21:10:16 11° 179° (S) 3,570 9.5 -49.8°
